Location: Altavilla Irpina
(41.0000°N, 14.7833°E)
Time: 05:50:42
(UTC+00:00)

CZ-2C R/B - Pass Details

Date: 19 May 2025
Orbit: 417 x 449 km, 97.8° (Epoch: 14 June)

Event Time Altitude Azimuth Distance (km) Brightness Sun altitude
Rises 18:59:36 0° 188° (S) 2,398 5.8 -7.9°
Reaches altitude 10° 19:01:45 10° 200° (SSW) 1,542 5.0 -8.2°
Maximum altitude 19:04:41 29° 262° (W) 831 4.3 -8.6°
Drops below altitude 10° 19:07:41 10° 325° (NW) 1,573 6.5 -9.1°
Sets 19:09:54 0° 337° (NNW) 2,455 7.3 -9.4°
